Regional Weather Roundup
Issued by NWS Northern Indiana

Home | Current Version | Previous Version | Text Only | Print | Product List | Glossary Off
Versions: 1 2 3 4 5 6 7 8 9 10 11 12 13 14 15 16 17 18 19 20 21 22 23 24 25 26 27 28 29 30 31 32 33 34 35 36 37 38 39 40 41 42 43 44 45 46 47 48 49 50

000
ASUS43 KIWX 222300
RWRIWX

KIWX WEATHER ROUNDUP
NATIONAL WEATHER SERVICE NORTHERN INDIANA
600 PM EST SUN JAN 22 2017

NOTE: "FAIR" INDICATES FEW OR NO CLOUDS BELOW 12,000 FEET WITH NO
SIGNIFICANT WEATHER AND/OR OBSTRUCTIONS TO VISIBILITY.

* THESE STATIONS ARE NOT UNDER NWS QUALITY CONTROL. THEY ALSO MAY NOT
  REPORT WEATHER SUCH AS PRECIPITATION OR FOG.

INZ001>027-230000-
NORTHERN INDIANA

CITY           SKY/WX    TMP DP  RH WIND       PRES   REMARKS
GARY*          FOG       41  41 100 N12       29.64  VSB 1/4
VALPARAISO     CLOUDY    42  41  96 N13       29.61R FOG
SOUTH BEND     FOG       42  41  96 N8        29.61R VSB 1/2
ELKHART*       CLOUDY    41  41 100 N5        29.60S FOG
GOSHEN         CLOUDY    45  42  89 N12       29.59R FOG
FORT WAYNE     CLOUDY    54  49  83 N9        29.54F
PERU/GRISSOM   CLOUDY    51  51  99 N9        29.52F

$$
INZ028>050-230000-
CENTRAL INDIANA

CITY           SKY/WX    TMP DP  RH WIND       PRES   REMARKS
LAFAYETTE      MOCLDY    48  46  93 N12       29.54R
KOKOMO*        CLOUDY    53  50  89 N14       29.53F
MUNCIE*        CLOUDY    57  52  83 NE14      29.50F
INDIANAPOLIS   CLOUDY    58  52  80 N13       29.45F

$$
MIZ043>046-050>051-056>058-064>065-071>073-077>080-230000-
SOUTHWEST LOWER MICHIGAN

CITY           SKY/WX    TMP DP  RH WIND       PRES   REMARKS
BATTLE CREEK   FOG       41  41 100 N7        29.62S VSB 3/4
BENTON HARBOR  CLOUDY    42  40  92 VRB5      29.63R FOG
COLDWATER*     FOG       46  46 100 N6        29.59S VSB 3/4
HILLSDALE*     CLOUDY    46  45  93 NE7       29.59R FOG
HOLLAND        CLOUDY    44  41  89 NE3       29.65R
GRAND RAPIDS   CLOUDY    42  39  89 NE7       29.64S FOG
KALAMAZOO      FOG       42  40  92 N7        29.62S VSB 1/2
STURGIS*       FOG       43  43 100 N10       29.59R VSB 1/2
THREE RIVERS*  CLOUDY    41  41 100 N7        29.61S FOG

$$
OHZ001>008-015>018-024>025-230000-
NORTHWEST OHIO

CITY           SKY/WX    TMP DP  RH WIND       PRES   REMARKS
DEFIANCE       CLOUDY    53  47  79 NE9       29.56S
FINDLAY        CLOUDY    52  46  80 NE13      29.55R
TOLEDO EXPRESS CLOUDY    47  47 100 E7        29.58R FOG
TOLEDO METCALF FOG       46  46 100 NE9       29.60S VSB 1/4
LIMA           PTCLDY    56  51  84 NE8       29.52F

$$
AND FOR LAKE MICHIGAN COASTAL AND OPEN LAKE BUOY OBSERVATIONS

STATION/POSITION TEMP    WIND        PRES    VSBY  WAVE
                 AIR SEA DIR/SP/G                  HT/PER
                 (F)     (DEG/KT/KT) (MB)    (MI)  (FT/S)
CALUMET HARBOR    37     330/  5/  8 1003.3
MICHIGAN CITY     36     340/  9/ 10   N/A
BURNS HARBOR      36      10/  9/ 11 1004.1S
SAINT JOSEPH      41      30/  7/ 11 1003.4

$$
&&




USA.gov is the U.S. government's official web portal to all federal, state and local government web resources and services.